Weather reports worldwide

Advertisment
Nice, France (7690): temperature & dewpoint: 20.09.2020 13:00:00 - 26.09.2020 13:00:00 (CEST)Nice, France (7690): temperature 5cm: 20.09.2020 13:00:00 - 26.09.2020 13:00:00 (CEST)Nice, France (7690): temperature -20cm & temperature -100cm: 20.09.2020 13:00:00 - 26.09.2020 13:00:00 (CEST)Nice, France (7690): wind speed & gusts: 20.09.2020 13:00:00 - 26.09.2020 13:00:00 (CEST)Nice, France (7690): wind direction: 20.09.2020 13:00:00 - 26.09.2020 13:00:00 (CEST)Nice, France (7690): reduced air pressure: 20.09.2020 13:00:00 - 26.09.2020 13:00:00 (CEST)Nice, France (7690): visibility: 20.09.2020 13:00:00 - 26.09.2020 13:00:00 (CEST)Nice, France (7690): sunshine duration: 20.09.2020 13:00:00 - 26.09.2020 13:00:00 (CEST)Nice, France (7690): precipitation: 20.09.2020 13:00:00 - 26.09.2020 13:00:00 (CEST)
Date & Time tt [°C] td [°C] tt 5cm [°C] tt -20cm [°C] tt -100cm [°C] ff [km/h] ff [kn] fx [km/h] fx [kn] dd ppp [hPa] vv [km] sd [min] rr [mm]
26.09.2020 13:00:00 22,9 -4,3 26,8 23,5 25,2 16 9 45 25 NNW 999,7 50 60 0,0
26.09.2020 12:00:00 22,3 -3,2 25,0 23,6 25,2 28 15 46 25 N 999,7 50 60 0,0
26.09.2020 11:00:00 21,0 -2,8 22,5 23,6 25,3 30 16 50 27 N 999,6 50 60 0,0
26.09.2020 10:00:00 19,3 -2,4 20,4 23,7 25,3 29 16 52 28 N 999,0 50 60 0,0
26.09.2020 09:00:00 17,1 -1,6 15,3 23,8 25,3 5 3 11 6 NW 998,9 50 60 0,0
26.09.2020 08:00:00 14,8 2,0 13,3 23,8 25,3 6 3 32 17 N 999,4 50 16 0,0
26.09.2020 07:00:00 14,7 0,1 12,4 23,8 25,3 23 13 33 18 NW 999,3 50 0 0,0
26.09.2020 06:00:00 14,7 1,6 13,2 23,9 25,3 9 5 47 25 NW 999,3 50 0 0,0
26.09.2020 05:00:00 15,9 -0,8 14,6 23,9 25,4 31 17 50 27 NW 998,5 50 0 0,0
26.09.2020 04:00:00 16,4 0,5 15,3 23,9 25,3 26 14 52 28 NW 998,4 50 0 0,0
26.09.2020 03:00:00 16,3 1,9 14,9 24,0 25,4 37 20 56 30 WNW 998,1 50 0 0,0
26.09.2020 02:00:00 16,4 1,7 14,7 24,0 25,4 30 16 42 23 WNW 998,5 50 0 0,0
26.09.2020 01:00:00 16,1 3,5 14,7 24,0 25,4 19 10 38 20 WNW 998,3 50 0 0,0
26.09.2020 00:00:00 15,9 3,0 15,0 24,0 25,4 23 13 47 26 W 998,9 50 0 0,0
25.09.2020 23:00:00 16,5 3,2 15,5 24,1 25,4 35 19 49 26 W 999,4 50 0 0,0
25.09.2020 22:00:00 17,1 4,1 15,9 24,1 25,4 16 9 52 28 WNW 999,5 50 0 0,0
25.09.2020 21:00:00 18,0 3,8 17,2 24,1 25,5 39 21 62 34 WNW 999,2 50 0 0,0
25.09.2020 20:00:00 18,3 2,6 17,3 24,1 25,5 43 23 72 39 W 998,5 50 1 0,0
25.09.2020 19:00:00 19,0 2,8 18,8 24,2 25,5 40 21 61 33 W 997,7 50 60 0,0
25.09.2020 18:00:00 20,4 4,0 21,6 24,2 25,5 37 20 69 38 W 997,5 50 60 0,0
25.09.2020 17:00:00 21,0 4,9 22,5 24,2 25,5 51 28 67 36 WSW 996,9 50 60 0,0
25.09.2020 16:00:00 21,6 4,6 23,9 24,3 25,5 37 20 68 37 W 997,0 50 60 0,0
25.09.2020 15:00:00 21,9 3,5 23,6 24,3 25,5 39 21 70 38 W 996,7 50 60 0,0
25.09.2020 14:00:00 21,4 5,3 21,3 24,3 25,5 46 25 69 37 W 996,8 50 15 0,0
25.09.2020 13:00:00 20,1 4,9 20,1 24,3 25,5 45 25 74 40 W 997,7 50 1 0,0
25.09.2020 12:00:00 19,8 7,5 20,8 24,3 25,6 50 27 66 36 WSW 997,4 50 42 0,0
25.09.2020 11:00:00 20,9 6,0 21,8 24,3 25,6 37 20 54 29 WSW 997,6 50 57 0,0
25.09.2020 10:00:00 19,8 7,2 18,9 24,4 25,6 16 9 60 32 W 998,8 40 11 0,0
25.09.2020 09:00:00 19,7 7,7 18,0 24,4 25,6 32 18 61 33 W 999,3 40 37 0,0
25.09.2020 08:00:00 18,9 10,7 17,1 24,4 25,6 31 17 45 25 W 999,5 40 0 0,0
25.09.2020 07:00:00 18,1 11,2 17,0 24,4 25,6 18 10 33 18 WSW 999,7 40 0 0,0
25.09.2020 06:00:00 19,3 11,1 17,8 24,4 25,6 19 10 29 16 WSW 1000,7 40 0 0,0
25.09.2020 05:00:00 18,9 12,4 17,8 24,5 25,7 16 9 22 12 W 1000,5 40 0 0,0
25.09.2020 04:00:00 19,0 14,9 16,5 24,5 25,7 8 4 18 10 NW 1001,5 56 0 0,0
25.09.2020 03:00:00 17,6 14,5 16,7 24,5 25,7 10 6 20 11 NW 1002,0 40 0 0,0
25.09.2020 02:00:00 18,2 14,9 17,2 24,5 25,7 9 5 21 11 NW 1003,2 40 0 0,0
25.09.2020 01:00:00 18,3 15,4 17,6 24,5 25,7 15 8 23 13 NW 1003,2 40 0 0,0
25.09.2020 00:00:00 18,9 15,6 18,2 24,5 25,7 15 8 22 12 NW 1004,1 40 0 0,0
24.09.2020 23:00:00 19,1 16,1 18,7 24,5 25,7 18 10 27 14 NW 1005,3 40 0 0,0
24.09.2020 22:00:00 19,3 16,3 19,1 24,5 25,7 14 8 22 12 NNW 1006,4 50 0 0,0
24.09.2020 21:00:00 19,5 17,1 19,4 24,6 25,7 10 6 27 14 NNW 1006,7 50 0 0,0
24.09.2020 20:00:00 19,6 17,7 19,7 24,7 25,7 16 9 24 13 NNW 1007,0 50 0 0,0
24.09.2020 19:00:00 19,8 17,8 20,0 24,6 25,7 2 1 31 17 N 1007,5 50 0 0,0
24.09.2020 18:00:00 19,2 17,2 20,2 24,6 25,7 8 4 26 14 NNW 1008,2 6 0 0,0
24.09.2020 17:00:00 18,8 17,8 16,4 24,6 25,7 4 2 71 39 NNE 1008,5 50 37 6,1
24.09.2020 16:00:00 16,6 14,2 16,4 24,7 25,8 35 19 86 46 NW 1011,1 0,1 0 16,4
24.09.2020 15:00:00 24,1 19,6 26,0 24,7 25,8 10 5 20 11 S 1009,5 30 29 0,0
24.09.2020 14:00:00 24,5 16,5 29,4 24,7 25,8 10 5 15 8 S 1010,4 50 53 0,0
24.09.2020 13:00:00 24,2 17,7 26,9 24,7 25,8 10 5 13 7 ESE 1010,5 50 31 0,0
24.09.2020 12:00:00 23,5 17,9 26,2 24,7 25,8 8 4 12 7 ESE 1011,2 50 17 0,0
24.09.2020 11:00:00 23,9 17,4 27,2 24,8 25,9 3 1 12 6 E 1011,2 50 42 0,0
24.09.2020 10:00:00 22,8 14,9 23,1 24,8 25,8 2 1 12 7 NE 1010,8 50 53 0,0
24.09.2020 09:00:00 21,0 12,7 19,1 24,8 25,9 11 6 15 8 NNW 1010,1 50 35 0,0
24.09.2020 08:00:00 19,5 12,5 18,7 24,8 25,9 15 8 22 12 NNW 1009,6 50 0 0,0
24.09.2020 07:00:00 19,6 12,8 18,4 24,8 25,9 16 8 27 15 NNW 1009,5 50 0 0,0
24.09.2020 06:00:00 19,4 13,1 18,3 24,8 25,9 10 5 18 10 NNW 1009,4 50 0 0,0
24.09.2020 05:00:00 19,2 13,6 18,2 24,8 25,9 11 6 23 12 NW 1009,4 50 0 0,0
24.09.2020 04:00:00 19,3 14,8 18,2 24,8 25,9 14 7 20 11 WNW 1009,6 50 0 0,0
24.09.2020 03:00:00 19,3 14,8 17,8 24,9 25,9 13 7 21 11 WNW 1009,5 50 0 0,0
24.09.2020 02:00:00 19,6 15,3 17,8 24,9 25,9 10 5 21 11 WNW 1009,8 50 0 0,0
24.09.2020 01:00:00 19,2 16,2 18,2 24,9 25,9 8 4 20 11 W 1009,8 50 0 0,0
24.09.2020 00:00:00 19,8 17,0 18,7 24,9 26,0 13 7 21 11 NW 1009,6 50 0 0,0
23.09.2020 23:00:00 20,4 17,4 19,5 24,9 25,9 11 6 15 8 WNW 1009,7 50 0 0,0
23.09.2020 22:00:00 21,3 17,7 20,1 24,9 26,0 7 4 13 7 NW 1009,6 50 0 0,0
23.09.2020 21:00:00 22,9 17,1 21,8 24,9 26,0 9 5 22 12 NW 1009,1 50 0 0,0
23.09.2020 20:00:00 23,5 19,0 22,8 24,9 26,0 17 9 42 23 WSW 1008,4 50 5 0,0
23.09.2020 19:00:00 24,1 19,6 24,3 25,0 26,0 32 17 46 25 SSW 1008,2 50 60 0,0
23.09.2020 18:00:00 24,2 19,3 26,4 25,0 26,0 33 18 48 26 SSW 1008,2 50 60 0,0
23.09.2020 17:00:00 24,4 19,2 27,7 25,0 26,0 32 17 45 25 SSW 1008,4 50 60 0,0
23.09.2020 16:00:00 24,7 19,8 27,7 25,1 26,0 31 17 42 23 SSW 1008,6 50 58 0,0
23.09.2020 15:00:00 24,1 19,6 26,9 25,1 26,0 28 15 36 19 SSW 1009,1 50 53 0,0
23.09.2020 14:00:00 23,6 18,3 25,1 25,1 26,0 17 9 23 12 S 1010,0 50 30 0,0
23.09.2020 13:00:00 22,1 17,0 25,1 25,1 26,1 8 4 14 8 SSE 1010,7 50 19 0,0
23.09.2020 12:00:00 22,2 14,6 28,7 25,2 26,1 11 6 16 9 S 1011,0 50 60 0,0
23.09.2020 11:00:00 21,7 13,8 21,2 25,2 26,1 8 4 18 10 NNW 1011,0 50 36 0,0
23.09.2020 10:00:00 19,6 12,8 19,3 25,3 26,1 15 8 21 11 NNW 1011,1 50 21 0,0
23.09.2020 09:00:00 18,1 12,8 17,8 25,3 26,1 10 5 24 13 NNW 1010,6 50 39 0,0
23.09.2020 08:00:00 16,9 12,6 16,1 25,3 26,1 16 8 25 14 NW 1010,7 50 16 0,0
23.09.2020 07:00:00 16,8 12,7 15,9 25,3 26,1 14 7 27 15 NW 1010,6 50 0 0,0
23.09.2020 06:00:00 17,3 13,0 15,9 25,3 26,1 11 6 19 10 NNW 1010,7 60 0 0,0
23.09.2020 05:00:00 17,1 13,2 16,2 25,4 26,1 9 5 24 13 NNW 1010,6 50 0 0,0
23.09.2020 04:00:00 16,8 13,7 16,1 25,4 26,2 16 9 26 14 NNW 1010,8 50 0 0,0
23.09.2020 03:00:00 16,7 13,8 16,2 25,4 26,1 17 9 24 13 NW 1011,7 50 0 0,0
23.09.2020 02:00:00 16,9 14,2 16,3 25,5 26,2 16 9 23 12 NW 1012,2 50 0 0,0
23.09.2020 01:00:00 17,0 14,5 16,4 25,5 26,2 12 7 18 10 NNW 1012,5 50 0 0,0
23.09.2020 00:00:00 17,3 14,9 16,8 25,5 26,2 15 8 20 11 NW 1013,1 50 0 0,0
22.09.2020 23:00:00 17,8 15,2 17,2 25,5 26,2 13 7 19 10 NW 1013,2 50 0 0,0
22.09.2020 22:00:00 18,2 15,6 17,8 25,5 26,2 15 8 19 10 NNW 1013,2 50 0 0,0
22.09.2020 21:00:00 19,0 16,0 18,4 25,6 26,2 10 5 14 8 NW 1013,1 50 0 0,0
22.09.2020 20:00:00 19,6 15,7 19,1 25,6 26,2 7 4 11 6 NW 1012,7 50 0 0,0
22.09.2020 19:00:00 20,1 15,5 19,9 25,6 26,2 6 4 15 8 NW 1012,8 50 0 0,0
22.09.2020 18:00:00 20,3 16,3 21,4 25,6 26,2 10 5 16 9 NNW 1013,1 40 45 0,0
22.09.2020 17:00:00 20,5 16,3 19,9 25,6 26,3 12 6 16 9 NNW 1013,4 40 15 0,0
22.09.2020 16:00:00 19,6 16,1 18,0 25,7 26,2 9 5 23 12 NNW 1014,2 40 0 0,8
22.09.2020 15:00:00 20,1 17,5 18,8 25,7 26,3 4 2 12 6 S 1014,1 20 0 2,2
22.09.2020 14:00:00 21,3 16,9 20,1 25,7 26,2 7 4 20 11 NNW 1014,7 20 4 0,2
22.09.2020 13:00:00 19,9 18,2 18,6 25,7 26,2 15 8 18 10 NNW 1014,8 15 0 1,0
22.09.2020 12:00:00 19,9 17,5 18,4 25,7 26,3 14 8 21 11 W 1015,2 8 0 2,0
22.09.2020 11:00:00 21,7 16,4 21,7 25,7 26,3 3 2 18 10 NE 1014,8 20 0 0,0
22.09.2020 10:00:00 20,9 15,2 20,2 25,7 26,3 9 5 20 11 NNW 1014,9 30 0 0,0
22.09.2020 09:00:00 20,1 15,1 19,5 25,7 26,3 14 8 24 13 NNW 1014,4 40 0 0,0
22.09.2020 08:00:00 19,9 14,9 19,3 25,7 26,3 14 8 23 12 NNW 1014,4 40 0 0,0
22.09.2020 07:00:00 19,7 15,1 19,0 25,8 26,3 11 6 22 12 NNW 1014,4 30 0 0,0
22.09.2020 06:00:00 19,5 15,2 19,0 25,8 26,3 17 9 24 13 NNW 1014,2 30 0 0,0
22.09.2020 05:00:00 19,6 15,5 19,1 25,8 26,3 12 6 17 9 NNW 1014,6 30 0 0,0
22.09.2020 04:00:00 19,8 15,6 19,2 25,8 26,3 11 6 17 9 NNW 1014,6 30 0 0,0
22.09.2020 03:00:00 19,8 16,1 19,2 25,8 26,3 11 6 17 9 NNW 1015,1 30 0 0,0
22.09.2020 02:00:00 20,0 16,2 19,5 25,8 26,4 12 6 16 9 NNW 1015,5 30 0 0,0
22.09.2020 01:00:00 20,2 16,6 19,7 25,8 26,4 11 6 16 9 N 1015,6 30 0 0,0
22.09.2020 00:00:00 20,1 16,9 19,7 25,8 26,3 11 6 16 9 NNW 1015,7 30 0 0,0
21.09.2020 23:00:00 20,2 17,6 19,9 25,8 26,4 11 6 16 9 N 1015,8 30 0 0,0
21.09.2020 22:00:00 20,6 18,4 20,1 25,8 26,4 6 4 15 8 NNW 1016,0 30 0 0,0
21.09.2020 21:00:00 21,5 18,1 20,9 25,8 26,4 11 6 15 8 NW 1015,7 30 0 0,0
21.09.2020 20:00:00 22,5 18,9 21,6 25,8 26,4 4 2 7 4 NNW 1015,6 30 7 0,0
21.09.2020 19:00:00 23,3 18,2 23,8 25,9 26,4 4 2 6 3 ENE 1015,0 30 21 0,0
21.09.2020 18:00:00 23,6 17,3 24,6 25,9 26,4 0 0 14 8 N 1015,3 30 0 0,0
21.09.2020 17:00:00 23,6 18,7 25,1 25,9 26,4 8 5 14 8 ENE 1015,1 30 0 0,0
21.09.2020 16:00:00 23,7 19,0 25,6 25,9 26,4 7 4 18 10 E 1015,4 30 0 0,0
21.09.2020 15:00:00 24,3 18,9 25,8 26,0 26,4 12 6 19 10 ESE 1015,4 30 24 0,0
21.09.2020 14:00:00 24,9 18,1 30,0 26,0 26,5 13 7 21 12 E 1016,0 30 60 0,0
21.09.2020 13:00:00 24,6 19,2 29,8 26,0 26,5 18 10 23 12 SE 1015,7 30 60 0,0
21.09.2020 12:00:00 24,3 18,2 28,1 26,0 26,4 9 5 17 9 SE 1015,7 30 60 0,0
21.09.2020 11:00:00 23,3 17,5 24,3 26,1 26,5 14 8 26 14 ENE 1015,5 30 49 0,0
21.09.2020 10:00:00 21,8 16,7 21,2 26,1 26,5 5 3 18 10 N 1015,7 30 0 0,0
21.09.2020 09:00:00 20,3 16,3 19,5 26,1 26,5 11 6 23 12 NNW 1015,2 20 0 0,0
21.09.2020 08:00:00 19,6 16,4 18,6 26,1 26,5 16 9 22 12 NNW 1015,1 20 0 0,0
21.09.2020 07:00:00 19,4 16,4 18,7 26,2 26,5 12 6 18 10 NNW 1014,4 20 0 0,0
21.09.2020 06:00:00 19,3 16,7 18,7 26,2 26,5 14 8 18 10 NNW 1014,4 20 0 0,0
21.09.2020 05:00:00 19,6 16,8 19,1 26,3 26,5 13 7 16 9 NW 1014,6 20 0 0,0
21.09.2020 04:00:00 19,9 17,3 19,3 26,3 26,5 12 7 16 9 NW 1014,8 20 0 0,0
21.09.2020 03:00:00 20,2 17,6 19,3 26,4 26,5 6 4 12 6 NW 1015,2 20 0 0,0
21.09.2020 02:00:00 20,3 17,9 19,5 26,4 26,5 11 6 16 9 NNW 1015,0 20 0 0,6
21.09.2020 01:00:00 20,8 18,0 20,5 26,4 26,5 10 6 16 9 NNW 1015,1 20 0 0,0
21.09.2020 00:00:00 21,2 18,6 20,6 26,4 26,5 5 3 12 7 NNW 1015,1 20 0 0,0
20.09.2020 23:00:00 21,4 19,0 21,0 26,5 26,5 10 5 15 8 NNW 1014,9 20 0 0,0
20.09.2020 22:00:00 23,2 20,0 22,1 26,5 26,5 12 7 18 10 ENE 1014,9 20 0 0,0
20.09.2020 21:00:00 23,3 19,7 21,7 26,5 26,5 13 7 22 12 E 1014,8 20 0 0,0
20.09.2020 20:00:00 23,2 19,6 22,8 26,6 26,5 17 9 22 12 E 1014,1 20 0 0,0
20.09.2020 19:00:00 23,4 19,5 23,0 26,6 26,5 19 11 29 15 E 1014,4 20 0 0,0
20.09.2020 18:00:00 23,8 19,5 23,8 26,7 26,5 20 11 25 14 E 1013,9 20 6 0,0
20.09.2020 17:00:00 24,7 19,8 26,4 26,7 26,5 18 10 23 12 E 1013,7 20 48 0,0
20.09.2020 16:00:00 24,1 19,4 21,8 26,7 26,5 21 11 27 14 E 1014,0 30 5 0,0
20.09.2020 15:00:00 23,6 17,8 21,8 26,7 26,5 0 0 11 6 N 1014,6 30 0 0,0
20.09.2020 14:00:00 23,0 18,5 24,3 26,8 26,5 7 4 19 10 NNW 1014,6 20 0 0,0
20.09.2020 13:00:00 21,8 18,0 17,2 26,8 26,5 11 6 34 18 N 1015,2 10 9 22,9

tt = temperature
td = dewpoint
tt 5cm = temperature 5cm
tt -20cm = temperature -20cm
tt -100cm = temperature -100cm
ff = wind speed
fx = gusts
dd = wind direction
ppp = reduced air pressure
vv = visibility
sd = sunshine duration
rr = precipitation

Next stations